Zurück zum Katalog

STARLINK-34782

AktivKommunikationVLEO
NORAD 65358·PAYLOAD·🇺🇸 United States

Gestartet Aug 28, 2025 von Cape Canaveral Space Force Station

Loading…

Nächste Überflüge (nächste 24 Stunden)

TLE

AktuellSource: CelesTrak SupGP

Epoche: Sep 14, 2026, 20:47 UTC

1 65358C 25190H   26257.86645833  .00017835  00000+0  52700-3 0  2576
2 65358  53.1587   7.7619 0001120  80.6346 264.8784 15.34378383    14

Verfolge STARLINK-34782 in Echtzeit mit AllMySat

Download on the App Store